Flag for Greenland Weather past 2 weeks in Ilulissat, Greenland

Now
46 °F

Partly sunny.


Feels Like: 45 °F
Forecast: N/A
Wind: 3 mph from North

Location: Jacobshavn Lufthavn

Current Time: Aug 4, 2015 at 8:18:26 PM

Latest Report: Aug 4, 2015 at 7:50 PM


Visibility: N/A

Pressure: 30.15 "Hg

Humidity: 76%

Dew point: 39 °F

Location of IlulissatLocation

Historic Weather in Ilulissat — Graph

°F

Ilulissat temperature yesterday

Maximum temperature yesterday: 48 °F (at 10:50 AM)
Minimum temperature yesterday: 41 °F (at 4:50 AM)
Average temperature yesterday: 46 °F

Past Weeks' High & Low Weather Summary

 TemperatureHumidityPressure
High55 °F (Jul 20, 6:50 PM)100% (Jul 26, 3:50 AM)30.24 "Hg (Jul 26, 3:50 AM)
Low37 °F (Jul 28, 10:50 AM)30% (Aug 1, 1:50 PM)29.86 "Hg (Jul 24, 8:50 PM)
Average45 °F69%30.06 "Hg
* Reported Jul 20 6:50 PM — Aug 4 6:50 PM, Ilulissat, Weather by CustomWeather, © 2015

Note: Actual official high and low records may vary slightly from our data, if they occured in-between our weather recording intervals... More about our weather records

Advertising

Ilulissat weather history for previous 24 hours

 ConditionsComfort  
Time TempWeatherWind HumidityBarometerVisibility
6:50 PM
Tue, Aug 4
48 °FPartly sunny.5 mph71%30.15 "HgN/A
5:50 PM50 °FPartly sunny.6 mph67%30.15 "HgN/A
4:50 PM48 °FPartly sunny.6 mph66%30.18 "HgN/A
3:50 PM46 °FPartly sunny.5 mph71%30.18 "HgN/A
2:50 PM48 °FPartly sunny.5 mph66%30.18 "HgN/A
1:50 PM50 °FPartly sunny.5 mph67%30.18 "HgN/A
12:50 PM48 °FPartly sunny.3 mph66%30.18 "HgN/A
11:50 AM45 °FPartly sunny.3 mph71%30.18 "HgN/A
10:50 AM46 °FPartly sunny.3 mph66%30.18 "HgN/A
9:50 AM46 °FPartly sunny.No wind71%30.18 "HgN/A
8:50 AM45 °FPartly sunny.2 mph71%30.18 "HgN/A
7:50 AM43 °FPartly sunny.No wind76%30.18 "HgN/A
6:50 AM45 °FPartly sunny.2 mph71%30.18 "HgN/A
5:50 AM45 °FOvercast.No wind76%30.18 "HgN/A
4:50 AM45 °FBroken clouds.No wind81%30.18 "HgN/A
3:50 AM45 °FMostly cloudy.No wind81%30.18 "HgN/A
2:50 AM45 °FOvercast.No wind81%30.18 "HgN/A
1:50 AM43 °FOvercast.No wind87%30.18 "HgN/A
12:50 AM45 °FOvercast.No wind81%30.21 "HgN/A
11:50 PM
Mon, Aug 3
45 °FLight rain. Partly sunny.No wind81%30.21 "HgN/A
10:50 PM45 °FLight rain. Partly sunny.5 mph81%30.21 "HgN/A
9:50 PM46 °FLight rain. Partly sunny.5 mph76%30.21 "HgN/A
8:50 PM46 °FLight rain. Partly sunny.6 mph76%30.21 "HgN/A
Weather by CustomWeather, © 2015

See weather overviewHow to use our weather pages